DW9372 Weather Reports


time (UTC)temp
C
wind
direction
speed
KPH
gust
KPH
rain 1hr
cm
rain 24hr
cm
rain mn
cm
humidity
%
barometer
mb
20260510032131 12 293 0.0 0.0 0.18 1.98 1.98 98 1007.8
20260510031626 12 137 0.0 1.6 0.30 1.98 1.98 98 1008.0
20260510031123 12 257 1.6 3.2 0.43 1.96 1.96 98 1008.8
20260510030617 12 295 6.4 9.7 0.66 1.93 1.93 98 1009.4
20260510030115 12 204 6.4 12.9 0.36 1.88 1.88 98 1008.7
20260510025612 11 294 3.2 4.8 0.00 1.83 1.83 98 1008.7
20260510025110 11 228 0.0 1.6 0.00 1.83 1.83 98 1007.8
20260510024606 11 224 0.0 1.6 0.00 1.83 1.83 98 1007.7
20260510024103 11 248 0.0 0.0 0.00 1.83 1.83 98 1007.8
20260510023559 11 254 0.0 0.0 0.00 1.83 1.83 98 1007.8
20260510023057 11 241 0.0 0.0 0.00 1.83 1.83 97 1007.9
20260510022555 11 237 0.0 0.0 0.00 1.83 1.83 97 1007.6
20260510022049 11 241 0.0 0.0 0.00 1.83 1.83 97 1007.5
20260510021541 11 209 0.0 0.0 0.00 1.83 1.83 97 1007.6
20260510021038 11 231 0.0 0.0 0.00 1.83 1.83 97 1007.6
20260510020532 11 228 0.0 0.0 0.00 1.83 1.83 97 1007.9
20260510020028 11 246 0.0 0.0 0.00 1.83 1.83 97 1007.9
20260510015524 11 246 0.0 0.0 0.00 1.83 1.83 97 1007.8
20260510015020 11 250 0.0 0.0 0.00 1.83 1.83 97 1007.6
20260510014517 11 235 0.0 0.0 0.00 1.83 1.83 96 1007.6
20260510014014 11 235 0.0 0.0 0.00 1.83 1.83 96 1007.6
20260510013509 11 234 0.0 0.0 0.00 1.83 1.83 96 1007.6
20260510013005 12 242 0.0 0.0 0.00 1.83 1.83 96 1007.8
20260510012459 12 242 0.0 0.0 0.00 1.83 1.83 96 1007.6
20260510011955 12 239 0.0 0.0 0.00 1.83 1.83 96 1007.7
20260510011449 12 239 0.0 0.0 0.00 1.83 1.83 96 1007.4
20260510010946 12 242 0.0 0.0 0.00 1.83 1.83 96 1007.2
20260510010443 12 253 3.2 3.2 0.00 1.83 1.83 96 1007.2
20260510005940 12 236 0.0 3.2 0.00 1.83 1.83 96 1007.1
20260510005436 12 233 1.6 1.6 0.00 1.83 1.83 96 1007.2
20260510004933 12 237 0.0 0.0 0.00 1.83 1.83 96 1007.2
20260510004431 12 226 1.6 3.2 0.00 1.83 1.83 96 1007.0
20260510003928 12 244 1.6 3.2 0.00 1.83 1.83 96 1007.2
20260510003425 12 251 6.4 9.7 0.00 1.83 1.83 96 1007.0
20260510002924 12 227 1.6 3.2 0.00 1.83 1.83 96 1007.3
20260510002416 12 228 1.6 1.6 0.00 1.83 1.83 96 1007.3
20260510001912 12 202 3.2 3.2 0.13 1.83 1.83 96 1007.3
20260510001410 12 236 3.2 3.2 0.30 1.83 1.83 95 1007.5
20260510000907 12 255 0.0 9.7 0.30 1.80 1.80 95 1007.3
20260510000404 12 234 4.8 6.4 0.71 1.78 1.78 95 1007.4
20260509235900 11 257 6.4 11.3 1.07 1.75 1.75 94 1007.6
20260509235357 11 304 3.2 4.8 1.07 1.63 1.63 93 1007.5
20260509234853 11 283 3.2 9.7 2.16 1.55 1.55 92 1007.4
20260509234350 11 205 0.0 3.2 3.66 1.47 1.47 91 1007.1
20260509233848 12 277 11.3 24.1 2.59 1.19 1.19 87 1007.5
20260509233345 15 334 19.3 37.0 0.13 0.79 0.79 78 1006.9
20260509232841 18 280 12.9 17.7 0.00 0.76 0.76 61 1006.6
20260509232339 19 278 3.2 9.7 0.00 0.76 0.76 53 1005.0
20260509231834 19 236 3.2 3.2 0.00 0.76 0.76 52 1005.0
20260509231332 19 206 4.8 12.9 0.00 0.76 0.76 53 1005.1
20260509230829 19 218 4.8 9.7 0.00 0.76 0.76 52 1004.9
20260509230326 19 270 1.6 9.7 0.00 0.76 0.76 52 1004.8
20260509225821 20 214 8.0 11.3 0.00 0.76 0.76 51 1005.1
20260509225318 20 266 4.8 11.3 0.00 0.76 0.76 51 1004.5
20260509224814 20 197 1.6 12.9 0.00 0.76 0.76 52 1004.5
20260509224311 20 320 3.2 12.9 0.00 0.76 0.76 50 1004.7
20260509223807 20 258 6.4 16.1 0.00 0.76 0.76 50 1004.9
20260509223305 20 243 6.4 16.1 0.00 0.76 0.76 51 1004.5
20260509222801 20 247 9.7 12.9 0.00 0.76 0.76 49 1004.6
20260509222257 20 229 6.4 16.1 0.00 0.76 0.76 48 1004.6
20260509221753 21 250 12.9 20.9 0.00 0.76 0.76 48 1004.6
20260509221249 21 202 3.2 11.3 0.00 0.76 0.76 48 1004.7
20260509220744 21 196 8.0 22.5 0.00 0.76 0.76 49 1004.7
20260509220236 21 216 11.3 14.5 0.00 0.76 0.76 48 1004.2
20260509215731 21 225 9.7 20.9 0.00 0.76 0.76 49 1004.3
20260509215228 21 177 11.3 16.1 0.00 0.76 0.76 49 1004.2
20260509214725 21 185 8.0 11.3 0.00 0.76 0.76 49 1004.3
20260509214222 21 237 14.5 24.1 0.00 0.76 0.76 49 1004.2
20260509213719 21 258 9.7 20.9 0.00 0.76 0.76 49 1004.2
20260509213214 21 206 6.4 14.5 0.00 0.76 0.76 50 1004.6
20260509212712 21 231 12.9 16.1 0.00 0.76 0.76 49 1004.5
20260509212208 21 273 9.7 22.5 0.00 0.76 0.76 48 1004.6
20260509211704 21 217 3.2 24.1 0.00 0.76 0.76 49 1004.6
20260509211156 21 227 3.2 16.1 0.00 0.76 0.76 50 1004.7
20260509210652 20 233 9.7 11.3 0.00 0.76 0.76 51 1005.0
20260509210144 21 163 4.8 4.8 0.00 0.76 0.76 53 1004.8
20260509205639 20 282 1.6 4.8 0.00 0.76 0.76 53 1004.8
20260509205138 20 236 6.4 12.9 0.00 0.76 0.76 52 1005.0
20260509204630 21 186 6.4 17.7 0.00 0.76 0.76 51 1005.1
20260509204126 21 232 8.0 17.7 0.00 0.76 0.76 49 1005.0
20260509203622 21 164 9.7 24.1 0.00 0.76 0.76 48 1005.0
20260509203121 21 230 12.9 17.7 0.00 0.76 0.76 47 1005.1
20260509202620 21 270 11.3 14.5 0.00 0.76 0.76 49 1005.2
20260509202115 20 201 3.2 16.1 0.00 0.76 0.76 53 1005.2
20260509201616 20 248 11.3 14.5 0.00 0.76 0.76 50 1005.7
20260509201114 21 264 9.7 11.3 0.00 0.76 0.76 52 1005.1
20260509200609 20 204 6.4 14.5 0.00 0.76 0.76 52 1005.6
20260509200104 20 208 3.2 16.1 0.00 0.76 0.76 54 1005.6
20260509195600 20 237 8.0 20.9 0.00 0.76 0.76 54 1005.8
20260509195050 20 239 12.9 16.1 0.00 0.76 0.76 52 1005.9
20260509194549 20 293 4.8 14.5 0.00 0.76 0.76 57 1006.0
20260509194048 20 222 6.4 12.9 0.00 0.76 0.76 53 1006.2
20260509193542 19 197 6.4 17.7 0.00 0.76 0.76 53 1006.0
20260509193039 18 204 6.4 14.5 0.00 0.76 0.76 55 1006.3
20260509192536 18 287 3.2 9.7 0.00 0.76 0.76 57 1006.4
20260509192030 18 214 3.2 16.1 0.00 0.76 0.76 54 1006.3
20260509191525 19 243 11.3 24.1 0.00 0.76 0.76 53 1006.6
20260509191021 20 287 6.4 12.9 0.00 0.76 0.76 56 1006.6
20260509190518 19 208 9.7 14.5 0.00 0.76 0.76 54 1006.4
20260509190016 18 253 1.6 14.5 0.00 0.76 0.76 59 1006.3
20260509185513 18 235 1.6 14.5 0.00 0.76 0.76 62 1006.5
20260509185009 18 312 9.7 12.9 0.00 0.76 0.76 55 1006.6
20260509184508 19 213 12.9 16.1 0.00 0.76 0.76 54 1006.4
20260509184004 18 173 11.3 20.9 0.00 0.76 0.76 56 1006.7
20260509183459 18 268 9.7 17.7 0.00 0.76 0.76 57 1006.4
20260509182955 18 137 6.4 20.9 0.00 0.76 0.76 56 1006.6
20260509182452 18 212 6.4 14.5 0.00 0.76 0.76 56 1006.6
20260509181949 18 229 8.0 11.3 0.00 0.76 0.76 58 1006.8
20260509181447 18 226 9.7 16.1 0.00 0.76 0.76 59 1006.7
20260509180944 18 343 4.8 12.9 0.00 0.76 0.76 59 1007.0
20260509180440 18 289 9.7 12.9 0.00 0.76 0.76 61 1006.8
20260509175936 18 238 4.8 6.4 0.00 0.76 0.76 59 1006.7
20260509175427 18 237 6.4 12.9 0.00 0.76 0.76 62 1006.7
20260509174924 18 214 3.2 14.5 0.00 0.76 0.76 62 1006.7
20260509174420 18 247 4.8 14.5 0.00 0.76 0.76 63 1006.8
20260509173915 17 196 4.8 9.7 0.00 0.76 0.76 62 1006.8
20260509173409 18 238 4.8 14.5 0.00 0.76 0.76 61 1006.7
20260509172907 17 262 3.2 9.7 0.00 0.76 0.76 65 1006.4
20260509172403 18 261 9.7 16.1 0.00 0.76 0.76 63 1006.5
20260509171859 17 255 1.6 9.7 0.00 0.76 0.76 69 1006.6
20260509171355 17 231 4.8 14.5 0.00 0.76 0.76 68 1006.8
20260509170852 17 250 6.4 11.3 0.00 0.76 0.76 66 1006.9
20260509170347 17 283 3.2 6.4 0.00 0.76 0.76 68 1007.0
20260509165841 17 201 3.2 12.9 0.00 0.76 0.76 65 1006.9
20260509165331 18 194 4.8 6.4 0.00 0.76 0.76 68 1007.2
20260509164827 17 238 4.8 9.7 0.00 0.76 0.76 70 1007.0
20260509164324 17 226 3.2 6.4 0.00 0.76 0.76 68 1007.1
20260509163820 17 250 6.4 11.3 0.00 0.76 0.76 72 1007.2
20260509163316 16 186 3.2 12.9 0.00 0.76 0.76 73 1007.3
20260509162815 17 231 4.8 4.8 0.00 0.76 0.76 75 1007.3
20260509162309 16 203 3.2 11.3 0.00 0.76 0.76 77 1007.3
20260509161805 16 227 6.4 9.7 0.00 0.76 0.76 78 1007.5
20260509161301 16 185 6.4 9.7 0.00 0.76 0.76 76 1007.3
20260509160756 16 251 6.4 11.3 0.00 0.76 0.76 78 1007.4
20260509160248 16 271 9.7 12.9 0.00 0.76 0.76 77 1007.3
20260509155743 16 247 3.2 9.7 0.00 0.76 0.76 78 1007.0
20260509155240 16 259 3.2 6.4 0.00 0.76 0.76 77 1007.1
20260509154735 16 270 6.4 9.7 0.00 0.76 0.76 83 1007.4
20260509154233 15 214 4.8 11.3 0.00 0.76 0.76 80 1007.3
20260509153730 15 202 4.8 9.7 0.00 0.76 0.76 80 1007.2
20260509153226 15 284 4.8 11.3 0.00 0.76 0.76 83 1007.3
20260509152722 15 225 4.8 12.9 0.00 0.76 0.76 83 1007.0
20260509152219 15 258 1.6 6.4 0.00 0.76 0.76 85 1007.3
20260509151716 14 258 4.8 6.4 0.00 0.76 0.76 86 1007.2
20260509151213 14 238 3.2 6.4 0.00 0.76 0.76 87 1007.5
20260509150710 14 218 3.2 4.8 0.00 0.76 0.76 88 1007.6
20260509150209 13 241 1.6 6.4 0.00 0.76 0.76 90 1007.3
20260509145704 13 246 0.0 3.2 0.00 0.76 0.76 91 1007.4
20260509145200 13 161 3.2 6.4 0.00 0.76 0.76 91 1007.4
20260509144656 13 250 1.6 3.2 0.00 0.76 0.76 92 1007.4
20260509144154 13 236 1.6 6.4 0.00 0.76 0.76 93 1007.4
20260509143651 12 227 0.0 1.6 0.00 0.76 0.76 93 1007.5
20260509143148 12 228 0.0 1.6 0.00 0.76 0.76 94 1007.3
20260509142644 12 253 1.6 3.2 0.00 0.76 0.76 94 1007.7
20260509142141 12 220 0.0 1.6 0.00 0.76 0.76 94 1007.3
20260509141636 12 254 1.6 3.2 0.00 0.76 0.76 95 1007.1
20260509141132 12 216 3.2 4.8 0.00 0.76 0.76 95 1007.5
20260509140630 12 214 1.6 3.2 0.00 0.76 0.76 95 1007.1
20260509140128 12 247 4.8 6.4 0.00 0.76 0.76 96 1007.4
20260509135625 11 230 0.0 4.8 0.00 0.76 0.76 96 1007.3
20260509135123 11 218 1.6 3.2 0.00 0.76 0.76 97 1007.5
20260509134619 11 229 3.2 4.8 0.00 0.76 0.76 97 1007.3
20260509134117 11 226 1.6 4.8 0.00 0.76 0.76 97 1007.4
20260509133614 11 207 0.0 4.8 0.00 0.76 0.76 97 1007.5
20260509133111 11 195 3.2 6.4 0.00 0.76 0.76 97 1007.4
20260509132609 11 240 3.2 3.2 0.00 0.76 0.76 97 1007.4
20260509132107 11 210 3.2 3.2 0.00 0.76 0.76 98 1007.5
20260509131603 11 218 1.6 3.2 0.00 0.76 0.76 98 1007.7
20260509131100 11 241 1.6 3.2 0.00 0.76 0.76 98 1007.5
20260509130555 11 158 1.6 3.2 0.00 0.76 0.76 98 1007.4
20260509130053 11 221 1.6 3.2 0.00 0.76 0.76 98 1007.5
20260509125549 11 231 0.0 1.6 0.00 0.76 0.76 98 1007.8
20260509125046 11 251 1.6 3.2 0.00 0.76 0.76 98 1007.8
20260509124542 11 246 0.0 1.6 0.00 0.76 0.76 98 1007.7
20260509124040 11 241 0.0 1.6 0.00 0.76 0.76 98 1007.9
20260509123537 11 244 0.0 1.6 0.00 0.76 0.76 98 1007.9
20260509123033 11 211 1.6 3.2 0.00 0.76 0.76 98 1007.8
20260509122530 11 254 1.6 3.2 0.00 0.76 0.76 98 1007.8
20260509122027 11 241 0.0 0.0 0.00 0.76 0.76 98 1008.0
20260509121523 11 225 1.6 3.2 0.00 0.76 0.76 98 1007.7
20260509121021 10 230 0.0 1.6 0.00 0.76 0.76 99 1007.8
20260509120519 10 230 0.0 0.0 0.00 0.76 0.76 98 1007.9
20260509120017 10 232 0.0 1.6 0.00 0.76 0.76 99 1008.0
20260509115514 10 231 0.0 1.6 0.00 0.76 0.76 98 1007.8
20260509115012 10 218 0.0 1.6 0.00 0.76 0.76 98 1007.9
20260509114509 10 228 0.0 1.6 0.00 0.76 0.76 98 1007.8
20260509114009 10 215 1.6 1.6 0.00 0.76 0.76 98 1008.1
20260509113506 10 243 0.0 0.0 0.00 0.76 0.76 99 1008.0
20260509113004 10 239 0.0 1.6 0.00 0.76 0.76 98 1008.0
20260509112500 10 230 0.0 1.6 0.00 0.76 0.76 99 1007.8
20260509111956 10 234 0.0 0.0 0.00 0.76 0.76 98 1007.8
20260509111454 10 221 0.0 1.6 0.00 0.76 0.76 98 1007.8
20260509110951 10 238 0.0 1.6 0.00 0.76 0.76 98 1007.7
20260509110447 10 170 3.2 3.2 0.00 0.76 0.76 99 1007.6
20260509105945 10 207 0.0 1.6 0.00 0.76 0.76 99 1007.7
20260509105443 10 220 0.0 0.0 0.00 0.76 0.76 98 1007.5
20260509104940 10 219 0.0 3.2 0.00 0.76 0.76 98 1007.4
20260509104437 10 231 0.0 1.6 0.00 0.76 0.76 98 1007.6
20260509103934 10 223 0.0 1.6 0.00 0.76 0.76 98 1007.6
20260509103432 10 221 0.0 3.2 0.00 0.76 0.76 98 1007.7
20260509102930 10 229 0.0 0.0 0.00 0.76 0.76 98 1007.5
20260509102427 10 236 0.0 1.6 0.00 0.76 0.76 98 1007.7
20260509101923 10 241 0.0 0.0 0.18 0.76 0.76 98 1007.6
20260509101419 10 213 0.0 1.6 0.18 0.76 0.76 98 1007.7
20260509100917 10 225 0.0 0.0 0.00 0.74 0.74 98 1007.5
20260509100414 10 223 0.0 0.0 0.13 0.74 0.74 98 1007.7
20260509095910 10 217 0.0 3.2 0.13 0.74 0.74 98 1007.8
20260509095408 10 178 1.6 1.6 0.00 0.71 0.71 98 1007.9
20260509094905 10 203 0.0 0.0 0.00 0.71 0.71 98 1007.7
20260509094401 10 180 1.6 3.2 0.00 0.71 0.71 98 1007.7
20260509093859 10 226 0.0 4.8 0.00 0.71 0.71 98 1007.8
20260509093356 10 210 1.6 3.2 0.00 0.71 0.71 98 1007.8
20260509092855 10 162 1.6 3.2 0.00 0.71 0.71 98 1008.0
20260509092352 10 242 0.0 0.0 0.00 0.71 0.71 98 1008.1
20260509091850 10 227 0.0 1.6 0.00 0.71 0.71 98 1008.2
20260509091346 10 254 0.0 0.0 0.00 0.71 0.71 98 1008.0
20260509090844 10 200 1.6 3.2 0.00 0.71 0.71 98 1008.1
20260509090341 10 243 0.0 3.2 0.00 0.71 0.71 98 1008.2
20260509085838 10 192 3.2 3.2 0.00 0.71 0.71 98 1008.1
20260509085335 10 228 0.0 1.6 0.18 0.71 0.71 98 1008.2
20260509084826 10 233 0.0 0.0 0.30 0.71 0.71 98 1008.5
20260509084323 10 204 0.0 1.6 0.13 0.69 0.69 98 1008.3
20260509083821 10 227 0.0 0.0 0.18 0.66 0.66 98 1008.5
20260509083317 10 253 0.0 0.0 0.30 0.66 0.66 98 1008.5
20260509082814 10 235 0.0 0.0 0.13 0.64 0.64 98 1008.4
20260509082310 10 185 1.6 4.8 0.00 0.61 0.61 98 1008.2
20260509081809 10 236 0.0 0.0 0.00 0.61 0.61 98 1008.3
20260509081305 10 227 0.0 1.6 0.18 0.61 0.61 98 1008.5
20260509080803 10 220 0.0 3.2 0.18 0.61 0.61 98 1008.4
20260509080301 9 232 0.0 4.8 0.18 0.58 0.58 98 1008.5
20260509075759 9 233 0.0 0.0 0.30 0.58 0.58 98 1008.6
20260509075256 9 188 1.6 3.2 0.13 0.56 0.56 98 1008.6
20260509074753 9 210 1.6 3.2 0.18 0.53 0.53 98 1008.5
20260509074251 9 227 0.0 0.0 0.18 0.53 0.53 98 1008.6
20260509073747 9 220 1.6 1.6 0.13 0.51 0.51 98 1008.5
20260509073243 9 222 0.0 3.2 0.18 0.48 0.48 98 1008.6
20260509072739 9 222 0.0 1.6 0.30 0.48 0.48 98 1008.7
20260509072236 9 232 0.0 3.2 0.30 0.46 0.46 98 1008.4
20260509071733 9 192 0.0 3.2 0.30 0.43 0.43 98 1008.4
20260509071230 9 211 1.6 4.8 0.30 0.41 0.41 98 1008.8
20260509070727 9 236 0.0 1.6 0.30 0.38 0.38 98 1008.6
20260509070224 9 217 0.0 1.6 0.13 0.36 0.36 98 1008.7
20260509065720 9 131 0.0 0.0 0.00 0.33 0.33 98 1008.8
20260509065216 9 242 0.0 0.0 0.18 0.33 0.33 98 1008.5
20260509064713 9 221 0.0 1.6 0.13 0.30 0.30 98 1008.6
20260509064210 9 231 0.0 3.2 0.30 0.30 0.30 98 1008.6
20260509063708 9 235 0.0 1.6 0.00 0.25 0.25 98 1008.7
20260509063204 9 221 1.6 1.6 0.18 0.25 0.25 98 1008.8
20260509062701 9 229 0.0 1.6 0.18 0.25 0.25 98 1008.7
20260509062158 9 222 3.2 4.8 0.13 0.23 0.23 98 1008.8
20260509061655 9 202 1.6 3.2 0.30 0.23 0.23 98 1008.9
20260509061153 9 205 3.2 3.2 0.30 0.20 0.20 98 1009.0
20260509060650 9 213 1.6 3.2 0.13 0.18 0.18 98 1009.2
20260509060146 9 164 0.0 0.0 0.00 0.15 0.15 98 1009.3
20260509055642 9 218 0.0 0.0 0.18 0.15 0.15 98 1009.2
20260509055138 9 195 1.6 3.2 0.18 0.15 0.15 98 1009.5
20260509054635 9 157 3.2 4.8 0.13 0.13 0.13 98 1009.3
20260509054132 9 185 3.2 3.2 0.13 0.13 0.13 98 1009.2
20260509053631 9 200 1.6 3.2 0.18 0.10 0.10 97 1009.3
20260509053127 9 228 0.0 0.0 0.18 0.10 0.10 97 1009.6
20260509052625 9 187 0.0 3.2 0.00 0.08 0.08 97 1009.6
20260509052122 9 202 1.6 4.8 0.00 0.08 0.08 97 1009.9
20260509051620 10 186 3.2 3.2 0.00 0.08 0.08 97 1009.8
20260509051117 10 145 1.6 3.2 0.00 0.08 0.08 97 1009.8
20260509050614 10 202 1.6 3.2 0.00 0.08 0.08 97 1009.9
20260509050110 10 161 1.6 3.2 0.00 0.08 0.08 97 1009.6
20260509045608 10 169 1.6 4.8 0.00 0.08 0.08 97 1010.0
20260509045105 10 170 3.2 3.2 0.13 0.08 0.08 97 1009.9
20260509044602 10 209 0.0 1.6 0.13 0.08 0.08 97 1010.0
20260509044059 10 233 0.0 0.0 0.18 0.05 0.05 97 1009.8
20260509043555 10 226 0.0 1.6 0.18 0.05 0.05 97 1010.0
20260509043045 10 191 0.0 3.2 0.00 0.03 0.03 97 1010.0
20260509042541 10 133 1.6 3.2 0.13 0.03 0.03 97 1010.2
20260509042037 10 231 0.0 1.6 0.00 0.00 0.00 97 1010.3
20260509041534 10 212 0.0 0.0 0.00 0.00 0.00 97 1010.2
20260509041032 10 174 3.2 3.2 0.00 0.00 0.00 97 1010.6
20260509040530 10 230 0.0 3.2 0.18 0.00 0.00 97 1010.4
20260509040027 10 178 6.4 6.4 0.30 1.19 1.19 97 1010.2
20260509035523 10 267 1.6 1.6 0.13 1.17 1.17 97 1010.5
20260509035015 10 196 1.6 3.2 0.18 1.14 1.14 97 1010.5
20260509034513 10 243 1.6 3.2 0.18 1.12 1.12 97 1010.7
20260509034010 10 231 4.8 4.8 0.30 1.12 1.12 97 1010.8
20260509033506 10 234 0.0 3.2 0.00 1.07 1.07 97 1010.6
20260509032957 10 209 3.2 3.2 0.18 1.07 1.07 97 1010.7